[[{"header":{"parameterUnit":"m.s-1","parameterCategory":1,"la1":30.2991,"la2":30.254,"lo1":-89.0895,"lo2":-89.0444,"dy":0.0017,"dx":0.0017,"nx":28,"ny":28,"refTime":"2023-11-23T03:00:00:Z","depth":0,"parameterNumber":2,"parameterNumberName":"U-component_of_WINDS"},"data":[0,0,0,0,0,0,0,0,0,0,0,0,0,0,0,0,0,0,0,0,0,0,0,0,0,0,0,0,0,0,0,0,0,0,0,0,0,0,0,0,0,0,0,0,0,0,0,0,0,0,0,0,0,0,0,0,0,0,-0.1095,-0.1095,0,-0.1091,-0.1091,-0.1091,-0.1052,-0.1051,-0.105,-0.105,-0.1049,-0.105,-0.1051,0,0,0,0,0,0,0,0,0,0,0,0,0,-0.107,-0.1071,-0.1095,-0.1095,-0.1095,-0.1091,-0.1091,-0.1091,-0.1053,-0.1051,-0.105,-0.1049,-0.1049,-0.105,-0.1051,0,0,0,0,0,0,0,0,0,0,0,0,0,-0.1075,-0.1071,-0.1095,-0.1075,-0.1073,-0.1091,-0.1091,-0.1091,-0.1053,-0.1051,-0.105,-0.1049,-0.1048,-0.105,-0.1051,-0.1089,0,0,-0.1055,-0.1056,0,0,0,0,0,0,0,0,-0.1075,-0.1076,-0.1078,-0.1076,-0.1074,-0.1071,-0.1082,-0.1091,-0.1053,-0.1061,-0.105,-0.1048,-0.1058,-0.1058,-0.1061,-0.1089,-0.1089,-0.1055,-0.1056,-0.1057,-0.1057,0,0,0,0,0,0,0,-0.1075,-0.1076,-0.1094,-0.1078,-0.1076,-0.1067,-0.1066,-0.1084,-0.1068,-0.106,-0.1057,-0.1057,-0.1056,-0.106,-0.1061,-0.1089,-0.1055,-0.1057,-0.1057,-0.1058,-0.1148,-0.115,0,0,0,0,0,0,-0.1077,-0.1076,-0.1094,-0.1093,-0.1071,-0.1069,-0.1068,-0.1073,-0.1067,-0.1065,-0.1058,-0.1055,-0.1058,-0.1059,-0.106,-0.1105,-0.1057,-0.1058,-0.1059,-0.1147,-0.1149,-0.115,0,0,0,0,0,0,-0.1076,-0.1079,-0.1094,-0.1084,-0.1085,-0.1071,-0.1078,-0.1074,-0.1077,-0.1066,-0.1063,-0.1064,-0.1057,-0.1059,-0.1082,-0.1105,-0.1059,-0.106,-0.1145,-0.1147,-0.1149,-0.1195,0,0,0,0,0,0,-0.1076,-0.1079,-0.1093,-0.1085,-0.1086,-0.1115,-0.1079,-0.1075,-0.1079,-0.1075,-0.1071,-0.1069,-0.1056,-0.108,-0.1083,-0.1106,-0.1061,-0.1143,-0.1146,-0.1149,-0.1191,-0.1198,-0.1204,0,0,0,0,0,-0.1075,-0.1106,-0.1094,-0.1096,-0.1103,-0.1116,-0.1117,-0.1101,-0.1081,-0.1096,-0.1088,-0.1069,-0.1101,-0.1083,-0.1086,-0.1109,-0.1141,-0.1145,-0.1148,-0.1188,-0.1197,-0.1204,0,0,0,0,0,0,-0.1119,-0.1105,-0.1091,-0.112,-0.112,-0.111,-0.1128,-0.111,-0.1116,-0.1113,-0.1092,-0.1092,-0.1119,-0.1116,-0.1096,-0.1146,-0.1118,-0.1122,-0.1147,-0.1155,-0.1162,-0.1163,-0.1062,0,0,0,0,0,-0.1132,-0.1143,-0.113,-0.1158,-0.1158,-0.1143,-0.1148,-0.1135,-0.1134,-0.1134,-0.1128,-0.1129,-0.1139,-0.1147,-0.1155,-0.1189,-0.1189,-0.1207,-0.1213,-0.1219,-0.1224,-0.1242,-0.1251,-0.1162,-0.1162,-0.1162,0,0,-0.1159,-0.1153,-0.1161,-0.1166,-0.1164,-0.1177,-0.1143,-0.1158,-0.1168,-0.1137,-0.1159,-0.1154,-0.1154,-0.1183,-0.1196,-0.1182,-0.1248,-0.1223,-0.1228,-0.123,-0.1247,-0.1255,-0.1263,-0.1164,-0.1164,-0.1164,0,0,-0.1216,-0.1211,-0.1234,-0.1232,-0.1229,-0.1218,-0.1224,-0.1216,-0.1212,-0.1233,-0.121,-0.1221,-0.1239,-0.124,-0.1242,-0.1297,-0.1281,-0.1301,-0.1336,-0.1355,-0.1362,-0.1368,-0.1389,-0.1397,-0.1305,-0.1305,-0.1305,0,-0.1251,-0.1269,-0.1248,-0.1264,-0.1268,-0.1238,-0.1261,-0.126,-0.1261,-0.1264,-0.1248,-0.1269,-0.1266,-0.1296,-0.1309,-0.1312,-0.1318,-0.1302,-0.1362,-0.1368,-0.1374,-0.1394,-0.1401,-0.1308,-0.1307,-0.1307,-0.1307,0,-0.1312,-0.1325,-0.1343,-0.1343,-0.1348,-0.1368,-0.1351,-0.1358,-0.1344,-0.1335,-0.1358,-0.1353,-0.136,-0.1366,-0.1353,-0.1393,-0.1385,-0.1365,-0.1338,-0.1385,-0.1404,-0.1411,-0.1311,-0.131,-0.131,-0.1309,0,0,-0.14,-0.1386,-0.1393,-0.1393,-0.1386,-0.1396,-0.1415,-0.142,-0.1428,-0.1428,-0.1444,-0.1459,-0.1441,-0.1444,-0.143,-0.1446,-0.1492,-0.1425,-0.1425,-0.1439,-0.1537,-0.1554,-0.1563,-0.1479,-0.148,-0.1481,-0.1538,0,-0.1455,-0.1486,-0.1466,-0.15,-0.1512,-0.1483,-0.1499,-0.1497,-0.1489,-0.1498,-0.1489,-0.1501,-0.1475,-0.1477,-0.1491,-0.1483,-0.1511,-0.1478,-0.1495,-0.1496,-0.1499,-0.1572,-0.159,-0.1644,-0.1545,-0.1546,-0.1547,0,-0.1526,-0.1528,-0.1563,-0.1553,-0.1558,-0.1573,-0.1576,-0.1585,-0.1582,-0.1575,-0.1578,-0.156,-0.1578,-0.1548,-0.1573,-0.1551,-0.1557,-0.1554,-0.1555,-0.1559,-0.1527,-0.158,-0.166,-0.1669,-0.1558,-0.1557,-0.1556,0,-0.1588,-0.16,-0.1622,-0.1622,-0.1612,-0.1623,-0.1619,-0.1615,-0.1619,-0.1622,-0.1625,-0.1631,-0.1635,-0.164,-0.1624,-0.1604,-0.1652,-0.1621,-0.1648,-0.1649,-0.1662,-0.1662,-0.1747,-0.1661,-0.1661,-0.1661,-0.1661,0,-0.1654,-0.1677,-0.165,-0.1664,-0.1689,-0.1666,-0.1691,-0.1684,-0.168,-0.1693,-0.1667,-0.168,-0.1657,-0.1668,-0.1656,-0.1679,-0.1681,-0.1676,-0.1673,-0.168,-0.1681,-0.1686,-0.1682,-0.1663,-0.1663,-0.1662,-0.1662,0,-0.173,-0.1712,-0.1735,-0.1722,-0.1719,-0.1738,-0.1727,-0.174,-0.1729,-0.1746,-0.1748,-0.1732,-0.1743,-0.1726,-0.1736,-0.1728,-0.176,-0.175,-0.1762,-0.176,-0.1789,-0.1787,-0.1882,-0.1894,-0.1798,-0.1799,-0.18,0,-0.1774,-0.1791,-0.1779,-0.1785,-0.1783,-0.1793,-0.1797,-0.1775,-0.178,-0.1777,-0.1791,-0.1799,-0.1805,-0.1824,-0.1814,-0.1821,-0.1812,-0.1845,-0.1814,-0.182,-0.1815,-0.1816,-0.1818,-0.1852,-0.1854,-0.1855,-0.1855,0,-0.1856,-0.1846,-0.1852,-0.1856,-0.1861,-0.1863,-0.1863,-0.187,-0.1846,-0.1854,-0.1864,-0.1868,-0.1877,-0.1886,-0.189,-0.1887,-0.1868,-0.1865,-0.1872,-0.188,-0.1887,-0.1886,-0.1782,-0.1863,-0.1863,-0.1862,-0.1862,-0.1861,-0.1919,-0.1932,-0.1926,-0.1934,-0.1931,-0.1931,-0.1943,-0.1932,-0.194,-0.1945,-0.1931,-0.1945,-0.1941,-0.1944,-0.1943,-0.1954,-0.194,-0.195,-0.1953,-0.1957,-0.1962,-0.1882,-0.1955,-0.1954,-0.1954,-0.1954,-0.1954,0,-0.2001,-0.1995,-0.2002,-0.2002,-0.2009,-0.1987,-0.1986,-0.1993,-0.2005,-0.2002,-0.2008,-0.202,-0.2028,-0.2018,-0.2024,-0.2035,-0.2027,-0.2038,-0.2038,-0.2038,-0.1973,-0.1967,-0.2045,-0.2045,-0.2045,-0.2045,-0.2045,-0.2045,-0.2045,-0.2067,-0.2056,-0.2076,-0.207,-0.2082,-0.2084,-0.2084,-0.2082,-0.2096,-0.2102,-0.2094,-0.2089,-0.2094,-0.2101,-0.2098,-0.2103,-0.2118,-0.2112,-0.2052,-0.2043,-0.2034,-0.2029,-0.2118,-0.2118,-0.2176,-0.2177,-0.2177]},{"header":{"parameterUnit":"m.s-1","parameterCategory":1,"la1":30.2991,"la2":30.254,"lo1":-89.0895,"lo2":-89.0444,"dy":0.0017,"dx":0.0017,"nx":28,"ny":28,"refTime":"2023-11-23T03:00:00:Z","depth":0,"parameterNumber":3,"parameterNumberName":"V-component_of_WINDS"},"data":[0,0,0,0,0,0,0,0,0,0,0,0,0,0,0,0,0,0,0,0,0,0,0,0,0,0,0,0,0,0,0,0,0,0,0,0,0,0,0,0,0,0,0,0,0,0,0,0,0,0,0,0,0,0,0,0,0,0,-1.4948,-1.4948,0,-1.4941,-1.4941,-1.4941,-1.4905,-1.4904,-1.4903,-1.4902,-1.4896,-1.4896,-1.4897,0,0,0,0,0,0,0,0,0,0,0,0,0,-1.4931,-1.4932,-1.4948,-1.4948,-1.4948,-1.4941,-1.4941,-1.4941,-1.4905,-1.4904,-1.4903,-1.4902,-1.4895,-1.4896,-1.4897,0,0,0,0,0,0,0,0,0,0,0,0,0,-1.4933,-1.4932,-1.4948,-1.4929,-1.4927,-1.4941,-1.4941,-1.4941,-1.4905,-1.4904,-1.4902,-1.4901,-1.4895,-1.4896,-1.4897,-1.4929,0,0,-1.49,-1.49,0,0,0,0,0,0,0,0,-1.4933,-1.4933,-1.4932,-1.4931,-1.4929,-1.4922,-1.4932,-1.4937,-1.4905,-1.4914,-1.4902,-1.4901,-1.4906,-1.4906,-1.4907,-1.4928,-1.4928,-1.49,-1.4901,-1.4901,-1.4901,0,0,0,0,0,0,0,-1.4933,-1.4934,-1.4945,-1.4932,-1.493,-1.4921,-1.492,-1.4933,-1.4917,-1.4913,-1.491,-1.491,-1.4904,-1.4906,-1.4907,-1.4928,-1.49,-1.4901,-1.4901,-1.4902,-1.4975,-1.4976,0,0,0,0,0,0,-1.4935,-1.4934,-1.4946,-1.4945,-1.4927,-1.4922,-1.4921,-1.4926,-1.4917,-1.4914,-1.4911,-1.4908,-1.4905,-1.4906,-1.4906,-1.4943,-1.4901,-1.4902,-1.4902,-1.4973,-1.4975,-1.4976,0,0,0,0,0,0,-1.4935,-1.4937,-1.4946,-1.4939,-1.4939,-1.4924,-1.493,-1.4926,-1.4928,-1.4915,-1.4912,-1.4916,-1.4904,-1.4905,-1.4923,-1.4942,-1.4902,-1.4903,-1.4972,-1.4974,-1.4976,-1.5017,0,0,0,0,0,0,-1.4935,-1.4937,-1.4949,-1.4939,-1.494,-1.4963,-1.4931,-1.4927,-1.493,-1.4926,-1.4919,-1.4917,-1.4903,-1.4922,-1.4924,-1.4943,-1.4904,-1.497,-1.4973,-1.4975,-1.5014,-1.502,-1.5026,0,0,0,0,0,-1.4934,-1.4961,-1.495,-1.4951,-1.4954,-1.4964,-1.4965,-1.4949,-1.4931,-1.4943,-1.4935,-1.4917,-1.494,-1.4924,-1.4926,-1.4946,-1.4969,-1.4972,-1.4975,-1.5011,-1.5019,-1.5025,0,0,0,0,0,0,-1.4974,-1.4959,-1.4947,-1.4971,-1.4969,-1.4958,-1.4973,-1.4957,-1.4961,-1.4957,-1.4937,-1.4936,-1.4957,-1.4953,-1.4936,-1.4976,-1.4951,-1.4955,-1.4978,-1.4985,-1.4991,-1.4992,-1.4905,0,0,0,0,0,-1.4985,-1.4994,-1.4981,-1.5004,-1.5004,-1.4989,-1.4992,-1.498,-1.4977,-1.4976,-1.4969,-1.4968,-1.4974,-1.4979,-1.4985,-1.5012,-1.5011,-1.5027,-1.5032,-1.5037,-1.5041,-1.5056,-1.5063,-1.4986,-1.4986,-1.4986,0,0,-1.501,-1.5003,-1.501,-1.5012,-1.5009,-1.5019,-1.4988,-1.5,-1.5008,-1.4978,-1.4995,-1.499,-1.4986,-1.501,-1.502,-1.5007,-1.5062,-1.5041,-1.5045,-1.5047,-1.506,-1.5067,-1.5074,-1.4989,-1.4988,-1.4988,0,0,-1.5059,-1.5054,-1.5073,-1.507,-1.5066,-1.5055,-1.506,-1.5051,-1.5046,-1.5062,-1.5041,-1.5049,-1.5061,-1.5059,-1.506,-1.5107,-1.5091,-1.5109,-1.5141,-1.5155,-1.5161,-1.5167,-1.5185,-1.5191,-1.5113,-1.5113,-1.5113,0,-1.509,-1.5104,-1.5085,-1.5098,-1.51,-1.5072,-1.5091,-1.509,-1.5087,-1.5089,-1.5075,-1.5089,-1.5085,-1.5107,-1.5119,-1.512,-1.5125,-1.5111,-1.5162,-1.5167,-1.5172,-1.5189,-1.5195,-1.5115,-1.5115,-1.5115,-1.5115,0,-1.5142,-1.5152,-1.5168,-1.5166,-1.5169,-1.5185,-1.5168,-1.5174,-1.516,-1.5151,-1.5168,-1.5162,-1.5166,-1.517,-1.5157,-1.5191,-1.5183,-1.5165,-1.5141,-1.5182,-1.5197,-1.5203,-1.5119,-1.5118,-1.5117,-1.5117,0,0,-1.5219,-1.5205,-1.5211,-1.521,-1.5202,-1.5209,-1.5224,-1.5227,-1.5232,-1.5231,-1.5243,-1.5253,-1.5236,-1.5237,-1.5224,-1.5237,-1.5275,-1.5217,-1.5217,-1.523,-1.5312,-1.5327,-1.5335,-1.5263,-1.5265,-1.5266,-1.5313,0,-1.5267,-1.5291,-1.5274,-1.5301,-1.531,-1.5283,-1.5296,-1.5292,-1.5284,-1.529,-1.5281,-1.5289,-1.5266,-1.5266,-1.5277,-1.5268,-1.5292,-1.5264,-1.5276,-1.5276,-1.5279,-1.5343,-1.5358,-1.5403,-1.5319,-1.532,-1.5321,0,-1.5327,-1.5328,-1.5356,-1.5346,-1.5349,-1.5361,-1.5362,-1.5368,-1.5364,-1.5356,-1.5357,-1.534,-1.5353,-1.5327,-1.5346,-1.5328,-1.5331,-1.5327,-1.5328,-1.533,-1.5302,-1.5348,-1.5417,-1.5425,-1.533,-1.5329,-1.5328,0,-1.5382,-1.539,-1.5407,-1.5407,-1.5395,-1.5404,-1.54,-1.5393,-1.5396,-1.5397,-1.5399,-1.5401,-1.5403,-1.5405,-1.5389,-1.5372,-1.541,-1.5383,-1.5406,-1.5406,-1.5417,-1.5417,-1.549,-1.5416,-1.5416,-1.5416,-1.5416,0,-1.5438,-1.5457,-1.5432,-1.5443,-1.5463,-1.5441,-1.5462,-1.5454,-1.5449,-1.5458,-1.5435,-1.5444,-1.5422,-1.5429,-1.5417,-1.5435,-1.5435,-1.543,-1.5427,-1.5433,-1.5434,-1.5437,-1.5434,-1.5418,-1.5417,-1.5417,-1.5417,0,-1.5504,-1.5487,-1.5505,-1.5492,-1.5489,-1.5504,-1.5493,-1.5503,-1.5492,-1.5504,-1.5506,-1.5489,-1.5496,-1.548,-1.5485,-1.5476,-1.5502,-1.5493,-1.5504,-1.5502,-1.5526,-1.5524,-1.5604,-1.5614,-1.5533,-1.5534,-1.5534,0,-1.5542,-1.5555,-1.5543,-1.5547,-1.5544,-1.5551,-1.5554,-1.5533,-1.5536,-1.5531,-1.5542,-1.5547,-1.555,-1.5562,-1.5551,-1.5554,-1.5546,-1.5574,-1.5547,-1.5553,-1.5548,-1.5549,-1.555,-1.558,-1.5581,-1.5582,-1.5583,0,-1.5612,-1.5602,-1.5607,-1.5608,-1.5611,-1.5611,-1.561,-1.5614,-1.5592,-1.5597,-1.5604,-1.5606,-1.561,-1.5616,-1.5616,-1.5612,-1.5594,-1.5591,-1.5597,-1.5604,-1.5611,-1.5609,-1.5521,-1.559,-1.5589,-1.5589,-1.5588,-1.5588,-1.5665,-1.5676,-1.5669,-1.5674,-1.567,-1.5669,-1.5678,-1.5667,-1.5672,-1.5674,-1.5661,-1.5671,-1.5665,-1.5664,-1.5661,-1.5669,-1.5656,-1.5664,-1.5667,-1.5669,-1.5674,-1.5608,-1.5668,-1.5668,-1.5668,-1.5668,-1.5668,0,-1.5735,-1.5729,-1.5734,-1.5732,-1.5736,-1.5717,-1.5714,-1.5719,-1.5727,-1.5723,-1.5726,-1.5734,-1.5738,-1.5727,-1.573,-1.5738,-1.573,-1.574,-1.574,-1.5739,-1.5684,-1.568,-1.5746,-1.5746,-1.5746,-1.5746,-1.5746,-1.5746,-1.5772,-1.5789,-1.5779,-1.5794,-1.5788,-1.5796,-1.5796,-1.5795,-1.5792,-1.5801,-1.5805,-1.5796,-1.5789,-1.5792,-1.5795,-1.5792,-1.5795,-1.5808,-1.5802,-1.5751,-1.5743,-1.5736,-1.5732,-1.5808,-1.5808,-1.5856,-1.5857,-1.5857]}]]